Regional Weather Roundup
Issued by NWS

Home | Current Version | Previous Version | Graphics & Text | Print | Product List | Glossary On
Versions: 1 2 3 4 5 6 7 8 9 10 11 12 13 14 15 16 17 18 19 20 21 22 23 24 25 26 27
000
ASUS45 KBOI 261610
RWRID

IDAHO REGIONAL WEATHER ROUNDUP
NATIONAL WEATHER SERVICE BOISE ID
1000 AM MDT SAT MAY 26 2018

NOTE: "FAIR" INDICATES FEW OR NO CLOUDS BELOW 12000 FEET
WITH NO SIGNIFICANT WEATHER AND/OR OBSTRUCTIONS TO VISIBILITY

IDZ012-014-261700-
SOUTHWEST IDAHO


CITY           SKY/WX    TMP DP  RH WIND       PRES   REMARKS
BOISE          SUNNY     63  52  67 NW14      29.88S
CALDWELL       SUNNY     64  53  67 W12       29.90R
MOUNTAIN HOME  CLOUDY    66  49  55 NW18      29.87S
$$

IDZ016-017-261700-
SOUTHCENTRAL IDAHO


CITY           SKY/WX    TMP DP  RH WIND       PRES   REMARKS
BURLEY         SUNNY     64  47  53 W8        29.89S
JEROME         SUNNY     61  48  62 W15       29.90R
TWIN FALLS     MOSUNNY   63  48  58 W14       29.90R
$$

IDZ019>023-261700-
SOUTHEAST IDAHO


CITY           SKY/WX    TMP DP  RH WIND       PRES   REMARKS
IDAHO FALLS    SUNNY     61  47  59 S13       29.92S
POCATELLO      SUNNY     62  47  57 W13       29.92S
REXBURG        SUNNY     60  45  57 S8        29.92S
$$

IDZ006-010-011-018-031-032-261700-
CENTRAL IDAHO MOUNTAINS


CITY           SKY/WX    TMP DP  RH WIND       PRES   REMARKS
MCCALL         MOSUNNY   54  49  83 CALM      29.92S
HAILEY         MOSUNNY   57  48  72 E12       29.90S
STANLEY          N/A     57  44  62 CALM      29.94F
SALMON         SUNNY     63  49  60 CALM      29.89F
CHALLIS        SUNNY     65  47  52 NE5       29.89F
$$

IDZ002-004-006-007-026-261700-
NORTHERN IDAHO


CITY           SKY/WX    TMP DP  RH WIND       PRES   REMARKS
LEWISTON       CLOUDY    59  53  80 CALM      29.96R
LOWELL           N/A     57  56  96 CALM      29.93R
COEUR D`ALENE  PTSUNNY   58  44  60 W9        29.95R
MULLAN PASS    LGT RAIN  45  45 100 NW3       29.99R VSB<1/4
$$




USA.gov is the U.S. government's official web portal to all federal, state and local government web resources and services.